Date,TemperatureHighF,TemperatureAvgF,TemperatureLowF,DewpointHighF,DewpointAvgF,DewpointLowF,HumidityHigh,HumidityAvg,HumidityLow,PressureMaxIn,PressureMinIn,WindSpeedMaxMPH,WindSpeedAvgMPH,GustSpeedMaxMPH,PrecipitationSumIn
2013-1-1,35,26,19,27,19,14,84,75,65,24.32,24.32,20,12,23,0.00
2013-1-2,36,24,11,20,15,7,85,68,49,24.32,24.32,15,7,20,0.00
2013-1-3,35,24,9,17,12,6,87,61,47,0.00,40.00,21,13,29,0.00
2013-1-4,42,31,21,19,15,11,70,52,40,24.32,24.32,23,8,25,0.00
2013-1-5,40,26,17,22,17,11,84,68,48,24.32,24.32,16,6,20,0.00
2013-1-6,41,30,15,21,17,11,86,60,43,0.00,40.00,20,9,24,0.00
2013-1-7,44,33,20,26,22,15,83,65,47,24.32,24.32,13,3,13,0.00
2013-1-8,49,40,27,27,24,19,77,53,31,0.00,40.00,25,9,37,0.00
2013-1-9,56,43,26,30,26,20,80,53,31,24.32,24.32,18,8,23,0.00
2013-1-10,51,34,21,33,25,16,89,72,43,24.32,24.32,18,7,22,0.00
2013-1-11,21,13,8,16,10,6,94,89,79,24.32,24.32,12,4,14,0.03
2013-1-12,18,9,-2,11,6,-4,93,87,74,24.32,24.32,13,4,15,0.01
2013-1-13,18,11,4,10,6,1,89,80,69,24.32,24.32,15,9,18,0.00
2013-1-14,18,13,7,10,6,2,82,74,65,24.32,24.32,21,14,30,0.00
2013-1-15,28,23,18,21,17,10,88,78,71,24.32,24.32,22,16,31,0.00
2013-1-16,41,31,25,27,21,18,75,67,55,24.32,24.32,20,12,24,0.00
2013-1-17,41,33,25,26,22,18,77,64,53,24.32,24.32,21,12,24,0.00
2013-1-18,52,39,33,27,24,21,68,54,35,0.00,40.00,18,10,23,0.00
2013-1-19,43,33,22,30,24,19,95,71,42,24.32,24.32,12,5,16,0.00
2013-1-20,34,24,17,24,19,13,90,81,65,24.32,24.32,14,6,16,0.00
2013-1-21,31,21,13,22,16,10,90,81,67,0.00,40.00,9,3,10,0.00
2013-1-22,47,29,13,28,19,11,94,70,41,24.32,24.32,13,4,17,0.00
2013-1-23,31,24,18,22,18,15,87,79,70,0.00,40.00,12,4,15,0.00
2013-1-24,55,36,20,32,24,17,88,66,40,24.32,24.32,16,4,28,0.00
2013-1-25,53,34,20,32,26,18,95,73,44,24.32,24.32,14,3,17,0.00
2013-1-26,59,42,30,34,30,26,86,66,38,24.32,24.32,12,2,15,0.00
2013-1-27,36,32,28,35,30,25,97,94,86,24.32,24.32,9,2,10,0.11
2013-1-28,40,30,22,29,24,17,97,81,43,24.32,24.32,17,4,21,0.02
2013-1-29,29,21,7,23,14,3,87,76,60,24.32,24.32,13,7,20,0.00
2013-1-30,32,23,9,29,20,6,97,87,74,24.32,24.32,16,6,22,0.13
2013-1-31,29,18,5,25,15,3,92,86,81,24.32,24.32,15,4,21,0.09
2013-2-1,46,37,29,35,29,24,84,73,53,24.32,24.32,15,7,23,0.01
2013-2-2,47,34,23,32,26,20,90,72,51,24.32,24.32,17,9,21,0.00
2013-2-3,51,38,31,30,26,23,75,63,36,24.32,24.32,20,10,25,0.00
2013-2-4,52,40,29,31,27,24,85,63,37,24.32,24.32,25,7,30,0.00
2013-2-5,52,39,29,34,29,25,87,67,46,0.00,40.00,14,5,15,0.00
2013-2-6,51,39,28,31,25,21,88,59,32,24.32,24.32,20,6,28,0.00
2013-2-7,45,32,20,27,23,19,95,71,45,24.32,24.32,6,2,8,0.00
2013-2-8,45,32,25,27,25,22,92,75,44,24.32,24.32,8,1,9,0.00
2013-2-9,42,31,19,31,25,18,96,80,54,24.32,24.32,9,2,12,0.00
2013-2-10,32,27,17,31,23,15,96,85,65,24.32,24.32,17,6,25,0.04
2013-2-11,32,22,8,20,15,6,96,76,59,24.32,24.32,18,11,25,0.01
2013-2-12,41,29,21,24,18,13,74,62,48,24.32,24.32,18,13,23,0.00
2013-2-13,51,37,30,36,26,18,96,67,41,24.32,24.32,30,12,39,0.05
2013-2-14,34,30,27,29,24,19,96,80,58,24.32,24.32,16,9,20,0.08
2013-2-15,44,32,25,33,26,24,96,82,56,24.32,24.32,16,7,23,0.06
2013-2-16,52,39,30,31,26,22,76,62,44,24.32,24.32,18,10,25,0.00
2013-2-17,46,38,32,33,27,22,81,67,39,24.32,24.32,24,10,31,0.00
2013-2-18,36,30,22,28,24,17,96,79,61,24.32,24.32,9,4,12,0.04
2013-2-19,32,23,17,24,19,15,94,83,63,24.32,24.32,9,3,12,0.01
2013-2-20,33,25,18,23,20,17,95,81,64,24.32,24.32,9,3,13,0.00
2013-2-21,41,29,22,30,24,20,96,82,53,24.32,24.32,9,2,12,0.03
2013-2-22,43,32,25,23,21,19,83,64,37,24.32,24.32,17,10,21,0.01
2013-2-23,40,34,27,34,26,19,97,74,50,24.32,24.32,15,5,21,0.03
2013-2-24,44,34,24,28,23,19,82,65,43,24.32,24.32,13,6,15,0.01
2013-2-25,47,36,24,26,21,17,81,56,35,24.32,24.32,21,10,25,0.00
2013-2-26,47,37,31,26,22,19,76,55,33,24.32,24.32,17,8,18,0.00
2013-2-27,46,33,20,24,20,16,85,62,34,24.32,24.32,14,6,18,0.00
2013-2-28,51,38,28,26,21,18,70,52,33,24.32,24.32,15,8,22,0.00
2013-3-1,61,44,28,34,28,20,80,55,35,24.32,24.32,24,10,31,0.00
2013-3-2,61,48,40,34,32,29,75,56,34,24.32,24.32,18,8,23,0.00
2013-3-3,54,38,29,36,29,17,97,73,48,24.32,24.32,33,5,46,0.18
2013-3-4,34,25,17,20,16,13,85,67,49,24.32,24.32,26,13,35,0.02
2013-3-5,33,22,11,25,17,9,93,81,66,24.32,24.32,9,4,10,0.00
2013-3-6,37,28,17,28,23,16,96,83,66,24.32,24.32,8,2,10,0.00
2013-3-7,57,40,26,32,27,17,92,66,21,24.32,24.32,13,5,15,0.00
2013-3-8,47,37,28,32,29,25,91,74,54,24.32,24.32,8,2,10,0.00
2013-3-9,50,36,23,29,23,20,96,65,34,24.32,24.32,24,6,29,0.00
2013-3-10,59,38,19,28,21,16,91,57,22,24.32,24.32,15,5,18,0.00
2013-3-11,49,40,33,31,25,19,67,55,35,24.32,24.32,25,8,36,0.00
2013-3-12,51,35,22,27,24,20,95,69,37,24.32,24.32,12,4,16,0.00
2013-3-13,69,49,30,32,28,24,81,49,23,24.32,24.32,26,8,33,0.00
2013-3-14,68,53,34,35,32,28,79,48,23,0.00,40.00,20,4,24,0.00
2013-3-15,68,53,38,33,30,23,74,45,19,24.32,24.32,23,9,33,0.00
2013-3-16,53,38,28,33,30,25,92,74,46,24.32,24.32,14,6,18,0.00
2013-3-17,43,35,25,33,23,13,93,64,30,24.32,24.32,29,11,47,0.00
2013-3-18,45,30,18,22,16,11,87,59,26,24.32,24.32,26,7,35,0.00
2013-3-19,39,31,26,25,22,19,93,70,49,24.32,24.32,12,4,14,0.00
2013-3-20,60,36,18,27,21,15,92,62,27,24.32,24.32,8,2,10,0.00
2013-3-21,49,41,31,34,23,14,85,53,24,24.32,24.32,21,9,25,0.00
2013-3-22,37,28,20,30,20,13,94,73,52,24.32,24.32,13,5,17,0.04
2013-3-23,38,26,15,17,13,8,90,61,30,24.32,24.32,16,6,23,0.01
2013-3-24,36,23,12,15,13,9,91,67,36,24.32,24.32,12,3,17,0.00
2013-3-25,50,27,10,20,13,6,88,60,24,0.00,40.00,12,3,14,0.00
2013-3-26,55,39,24,27,20,15,75,49,28,24.32,24.32,10,4,14,0.00
2013-3-27,64,45,24,29,23,18,78,46,20,24.32,24.32,13,4,15,0.00
2013-3-28,68,49,31,32,28,22,74,48,23,24.32,24.32,9,3,14,0.00
2013-3-29,63,49,39,43,33,26,86,57,35,24.32,24.32,13,5,17,0.00
2013-3-30,61,51,42,42,31,-100,88,52,26,24.32,24.32,18,8,24,0.00
2013-3-31,61,46,28,32,27,22,77,51,30,24.32,24.32,17,6,25,0.00
2013-4-1,58,43,25,31,26,21,85,55,30,24.32,24.32,12,4,18,0.00
2013-4-2,71,48,27,31,26,21,80,48,17,24.32,24.32,9,3,10,0.00
2013-4-3,68,54,42,36,31,26,62,43,26,24.32,24.32,17,7,21,0.00
2013-4-4,58,47,36,36,33,29,80,58,41,24.32,24.32,14,6,18,0.00
2013-4-5,62,52,43,48,37,33,82,59,38,24.32,24.32,20,6,23,0.06
2013-4-6,64,51,37,41,35,31,80,57,30,24.32,24.32,21,7,25,0.01
2013-4-7,63,49,37,45,40,34,96,73,37,24.32,24.32,17,4,21,0.41
2013-4-8,36,25,21,35,23,19,96,93,87,24.32,24.32,17,8,20,0.51
2013-4-9,30,24,20,21,18,16,95,78,57,24.32,24.32,6,2,8,0.04
2013-4-10,52,32,16,33,22,13,91,71,43,24.32,24.32,12,3,15,0.00
2013-4-11,59,48,36,38,33,25,78,58,37,24.32,24.32,23,11,30,0.00
2013-4-12,54,44,36,38,30,23,89,61,31,24.32,24.32,16,7,25,0.00
2013-4-13,52,40,37,39,32,24,95,74,53,24.32,24.32,23,6,30,0.15
2013-4-14,40,34,25,32,25,22,92,72,55,24.32,24.32,23,12,29,0.03
2013-4-15,35,28,21,28,23,19,94,82,62,24.32,24.32,10,3,14,0.00
2013-4-16,32,28,22,27,24,21,96,86,68,24.32,24.32,13,5,16,0.00
2013-4-17,35,28,18,29,23,17,96,84,58,24.32,24.32,14,3,17,0.01
2013-4-18,54,37,19,30,24,18,96,65,31,24.32,24.32,20,7,24,0.01
2013-4-19,60,47,35,44,33,27,93,60,37,24.32,24.32,16,7,23,0.12
2013-4-20,63,50,39,43,37,29,89,63,28,24.32,24.32,28,9,33,0.14
2013-4-21,49,35,28,37,31,27,98,87,63,24.32,24.32,13,8,18,0.06
2013-4-22,37,30,25,28,25,21,96,82,58,24.32,24.32,13,4,16,0.04
2013-4-23,52,36,21,32,22,16,88,61,24,24.32,24.32,17,9,22,0.00
2013-4-24,60,46,34,35,29,24,95,58,26,24.32,24.32,20,9,24,0.00
2013-4-25,70,56,36,34,27,20,73,37,17,0.00,40.00,22,8,28,0.00
2013-4-26,75,61,41,36,31,23,71,37,16,0.00,40.00,20,7,22,0.00
2013-4-27,77,64,46,35,30,23,62,32,14,0.00,40.00,25,10,30,0.00
2013-4-28,68,61,53,42,36,29,64,40,27,0.00,40.00,13,5,16,0.00
2013-4-29,67,53,45,43,36,19,78,55,26,24.32,24.32,26,10,37,0.00
2013-4-30,49,42,34,31,23,18,63,47,33,24.32,24.32,22,12,26,0.00
2013-5-1,52,40,29,27,23,17,77,54,27,27.20,24.32,9,3,12,0.00
2013-5-2,66,49,30,31,25,19,82,45,18,27.24,27.17,15,6,18,0.00
2013-5-3,67,55,37,45,32,25,87,45,25,27.17,27.17,14,7,17,0.00
2013-5-4,59,51,43,46,43,37,91,74,50,27.17,27.17,16,4,21,0.00
2013-5-5,68,52,34,42,36,32,96,61,29,27.17,27.17,12,4,17,0.00
2013-5-6,75,60,39,40,36,32,82,44,22,27.17,27.17,9,4,12,0.00
2013-5-7,80,64,42,41,36,29,80,41,18,27.17,27.17,14,4,18,0.00
2013-5-8,72,61,46,43,41,35,74,48,33,27.17,27.17,13,5,14,0.00
2013-5-9,75,60,42,46,42,38,86,54,28,27.17,27.17,14,4,16,0.00
2013-5-10,71,59,45,44,36,-100,80,48,27,27.17,27.17,20,8,25,0.00
2013-5-11,80,61,38,43,33,-100,74,39,22,27.17,27.17,10,3,13,0.00
2013-5-12,90,74,56,46,39,29,56,33,12,27.17,27.17,21,8,23,0.00
2013-5-13,92,76,58,49,40,30,64,33,11,27.17,27.17,21,6,24,0.00
2013-5-14,80,70,56,48,38,30,73,36,18,27.17,27.17,18,6,25,0.00
2013-5-15,75,64,46,42,33,27,63,33,23,27.17,27.17,12,4,16,0.00
2013-5-16,70,57,56,55,35,-100,93,69,45,27.17,27.17,22,6,25,0.34
2013-5-17,61,56,53,57,50,-100,96,88,78,27.17,27.17,7,3,10,0.15
2013-5-18,59,55,53,55,53,50,96,91,78,27.17,27.17,9,2,10,0.54
2013-5-19,54,53,52,53,51,49,96,93,89,27.17,27.17,16,6,24,0.90
2013-5-20,67,58,51,50,45,30,95,67,27,27.17,27.17,16,8,23,0.27
2013-5-21,68,56,42,46,42,34,96,65,32,27.17,27.17,16,5,21,0.00
2013-5-22,68,56,47,50,46,44,90,71,48,27.17,27.17,22,12,28,0.00
2013-5-23,72,60,53,56,49,46,91,68,47,27.17,27.17,17,10,23,0.32
2013-5-24,74,62,52,53,42,32,93,53,22,27.17,27.17,16,7,21,0.35
2013-5-25,77,63,45,46,43,40,86,51,29,27.17,27.17,13,4,18,0.01
2013-5-26,75,62,50,59,50,-5,83,65,6,27.17,27.17,16,3,25,0.23
2013-5-27,68,58,52,54,49,45,90,73,48,27.17,27.17,24,4,28,0.11
2013-5-28,73,59,47,53,48,45,95,70,39,27.17,27.17,10,3,15,0.03
2013-5-29,57,54,53,55,53,51,97,93,85,27.17,27.17,13,3,15,1.77
2013-5-30,56,53,51,52,49,45,96,87,71,27.17,27.17,23,10,32,0.26
2013-5-31,57,52,49,48,44,42,90,75,62,27.17,27.17,24,14,33,0.12
2013-6-1,69,59,48,50,46,43,90,65,40,27.17,27.17,8,3,13,0.09
2013-6-2,77,64,53,55,50,47,87,61,37,27.17,27.17,14,5,21,0.00
2013-6-3,62,54,48,55,44,39,94,70,46,27.17,27.17,32,16,39,0.14
2013-6-4,56,50,43,43,41,38,88,73,61,27.17,27.17,14,5,17,0.01
2013-6-5,71,56,38,46,41,37,97,64,30,27.17,27.17,9,2,12,0.00
2013-6-6,80,65,47,53,49,44,92,60,28,27.17,27.17,13,4,15,0.00
2013-6-7,86,69,52,58,51,39,94,58,20,27.17,27.17,15,4,22,0.00
2013-6-8,81,70,61,51,46,38,70,45,22,27.17,27.17,20,9,24,0.00
2013-6-9,84,70,52,56,50,45,87,53,29,27.17,27.17,10,4,15,0.00
2013-6-10,80,68,54,59,51,45,83,57,31,27.17,27.17,14,6,17,0.09
2013-6-11,81,68,59,62,57,53,88,71,52,27.17,27.17,21,4,26,0.09
2013-6-13,62,58,55,56,53,51,93,84,70,27.17,27.17,18,13,26,0.63
2013-6-14,69,61,50,52,44,37,90,59,31,27.17,27.17,23,10,36,0.03
2013-6-15,80,65,44,45,41,34,90,48,21,27.17,27.17,10,3,12,0.00
2013-6-16,78,67,49,50,48,42,91,53,33,27.17,27.17,13,5,18,0.00
2013-6-17,81,70,54,57,53,49,88,57,39,27.17,27.17,14,6,18,0.00
2013-6-18,89,73,58,61,54,45,88,55,24,27.17,27.17,13,4,16,0.00
2013-6-19,88,73,58,59,52,37,76,50,34,27.17,27.17,22,7,29,0.00
2013-6-20,76,66,53,39,35,31,51,32,19,27.17,27.17,13,8,16,0.00
2013-6-22,70,62,55,54,51,46,89,68,53,27.17,27.17,22,6,25,0.11
2013-6-23,79,64,47,51,47,43,93,59,29,27.17,27.17,12,5,17,0.02
2013-6-24,88,71,54,58,52,44,87,55,22,27.17,27.17,28,4,32,0.00
2013-6-25,86,76,63,57,48,37,78,41,18,27.17,27.17,17,6,21,0.00
2013-6-26,86,76,64,60,52,47,82,46,26,27.17,27.17,20,5,23,0.14
2013-6-27,89,74,59,62,57,51,91,59,28,27.17,27.17,14,4,17,0.13
2013-6-28,92,77,58,60,55,49,88,52,24,27.17,27.17,9,3,12,0.00
2013-6-29,89,76,60,63,58,54,90,57,33,27.17,27.17,20,5,33,0.08
2013-6-30,89,76,60,64,60,55,95,61,33,27.17,27.17,13,4,15,0.08
2013-7-1,91,78,61,63,57,51,87,51,26,27.17,27.17,10,4,12,0.00
2013-7-2,94,79,61,61,55,45,85,50,19,27.17,27.17,8,3,10,0.00
2013-7-3,98,85,63,62,52,41,80,37,14,27.17,27.17,17,6,24,0.00
2013-7-4,91,78,66,67,61,56,82,58,32,27.17,27.17,21,5,28,0.16
2013-7-5,80,72,62,64,60,56,94,68,45,27.17,27.17,16,4,18,0.17
2013-7-6,83,71,60,60,57,52,92,66,35,27.17,27.17,14,4,20,0.01
2013-7-7,83,70,59,61,57,50,92,66,37,27.17,27.17,16,4,32,0.20
2013-7-8,91,70,60,63,57,-100,91,68,33,27.17,27.17,32,2,43,0.46
2013-7-9,82,73,61,63,57,50,92,62,36,27.17,27.17,12,5,15,0.01
2013-7-10,97,76,58,60,49,-100,88,48,13,27.17,27.17,8,4,10,0.00
2013-7-11,95,84,66,59,50,43,67,34,18,27.17,27.17,17,7,23,0.00
2013-7-12,87,74,67,60,54,50,73,53,31,27.17,27.17,12,4,16,0.00
2013-7-13,87,77,66,62,58,54,79,54,34,27.17,27.17,18,8,23,0.05
2013-7-14,86,73,61,58,53,47,77,52,34,27.17,27.17,15,8,18,0.05
2013-7-15,99,78,59,62,52,27,87,49,8,27.17,27.17,10,4,12,0.00
2013-7-16,82,67,62,57,52,46,77,59,31,27.17,27.17,20,6,28,0.00
2013-7-17,82,69,60,65,59,56,91,72,48,27.17,27.17,9,3,13,0.01
2013-7-18,94,79,62,61,50,28,85,46,10,27.17,27.17,12,6,17,0.01
2013-7-19,93,83,65,56,46,31,64,30,12,27.17,27.17,10,4,13,0.00
2013-7-20,91,78,59,55,46,-100,71,37,17,27.17,27.17,9,4,13,0.00
2013-7-21,94,79,59,52,44,28,71,35,10,27.17,27.17,13,7,17,0.00
2013-7-22,95,78,61,56,49,26,74,41,9,27.17,27.17,14,5,21,0.00
2013-7-23,92,77,58,57,50,38,71,43,15,27.17,27.17,14,5,22,0.00
2013-7-24,94,80,63,58,50,43,73,40,17,27.17,27.17,13,5,20,0.00
2013-7-25,84,74,64,57,55,52,76,52,34,27.17,27.17,21,8,30,0.01
2013-7-26,86,72,58,55,52,49,75,53,32,27.17,27.17,13,7,18,0.00
2013-7-27,89,74,59,55,51,44,83,47,22,27.17,27.17,13,3,16,0.02
2013-7-28,80,71,62,58,54,51,81,56,39,27.17,27.17,14,5,16,0.05
2013-7-29,76,67,59,57,54,51,87,65,48,27.17,27.17,15,6,18,0.05
2013-7-30,79,68,57,61,56,53,92,66,44,27.17,27.17,10,4,14,0.17
2013-7-31,90,71,53,60,52,41,95,59,18,27.17,27.17,8,3,12,0.15
2013-8-1,83,74,64,57,54,52,74,51,37,27.17,27.17,13,6,17,0.00
2013-8-6,87,81,71,52,48,42,46,32,21,27.17,27.17,13,7,20,0.72
2013-8-7,88,72,54,55,50,44,84,50,22,27.17,27.17,18,4,25,0.54
2013-8-8,83,70,54,56,54,51,92,60,35,27.17,27.17,14,5,20,0.00
2013-8-9,79,67,61,63,56,51,87,69,44,27.17,27.17,13,5,18,0.26
2013-8-10,84,70,57,61,58,48,96,71,33,27.17,27.17,9,2,14,0.01
2013-8-11,87,76,56,57,53,47,84,47,27,27.17,27.17,12,3,14,0.00
2013-9-22,73,68,58,48,46,44,63,46,36,27.17,27.17,15,5,18,0.00
2013-9-23,72,63,52,49,42,34,75,50,25,27.17,27.17,23,8,25,0.00
2013-9-24,77,60,41,47,42,39,93,57,26,27.17,27.17,15,3,17,0.00
2013-9-25,54,51,49,50,47,43,96,86,65,27.17,27.17,8,4,12,0.14
2013-9-26,50,46,42,47,41,38,96,82,68,27.17,27.17,12,5,15,0.24
2013-9-27,55,46,42,43,40,39,96,81,56,27.17,27.17,10,5,15,0.01
2013-9-28,67,53,42,42,40,38,86,64,38,27.17,27.17,17,11,22,0.00
2013-10-18,57,44,34,36,34,31,92,69,39,27.17,27.17,0,0,0,0.02
2013-10-19,61,46,39,37,30,-100,73,57,38,27.17,27.17,10,0,14,0.00
2013-10-20,55,49,43,41,38,35,84,65,48,27.17,27.17,3,0,8,0.00
2013-10-21,62,50,44,42,40,37,82,68,43,27.17,27.17,9,0,14,0.00
2013-10-22,66,52,37,44,41,35,94,70,41,27.17,27.17,0,0,0,0.00
2013-10-23,59,46,34,44,40,33,97,79,56,27.17,27.17,0,0,0,0.00
2013-10-24,58,43,33,45,39,32,97,87,60,27.17,27.17,0,0,0,0.00